This is the latest recevied weather packets stored in our database for station/object R1CBW-13. If no packets are shown the sender has not sent any weather packets the latest 10 day(s).
| Time | Temp. | Humidity | Pressure | Rain* | Wind** | Luminosity | Snow |
|---|---|---|---|---|---|---|---|
| 1777304416 | 7.22° C | 30% | 1005.4 hPa | 0 mm | - | - | - |
| 1777304356 | 6.67° C | 31% | 1005.3 hPa | 0 mm | - | - | - |
| 1777304296 | 7.22° C | 30% | 1005.4 hPa | 0 mm | - | - | - |
| 1777304236 | 6.11° C | 31% | 1005.5 hPa | 0 mm | - | - | - |
| 1777304176 | 6.67° C | 31% | 1005.4 hPa | 0 mm | - | - | - |
| 1777304116 | 6.67° C | 31% | 1005.5 hPa | 0 mm | - | - | - |
| 1777304056 | 7.22° C | 30% | 1005.5 hPa | 0 mm | - | - | - |
| 1777303996 | 6.67° C | 30% | 1005.5 hPa | 0 mm | - | - | - |
| 1777303936 | 6.67° C | 31% | 1005.5 hPa | 0 mm | - | - | - |
| 1777303876 | 6.11° C | 31% | 1005.5 hPa | 0 mm | - | - | - |
| 1777303816 | 6.67° C | 31% | 1005.4 hPa | 0 mm | - | - | - |
| 1777303756 | 6.67° C | 30% | 1005.5 hPa | 0 mm | - | - | - |
| 1777303696 | 7.22° C | 30% | 1005.3 hPa | 0 mm | - | - | - |
| 1777303636 | 6.11° C | 31% | 1005.7 hPa | 0 mm | - | - | - |
| 1777303576 | 7.22° C | 30% | 1005.3 hPa | 0 mm | - | - | - |
| 1777303516 | 6.67° C | 30% | 1005.2 hPa | 0 mm | - | - | - |
| 1777303456 | 6.67° C | 30% | 1005.4 hPa | 0 mm | - | - | - |
| 1777303396 | 7.22° C | 29% | 1005.2 hPa | 0 mm | - | - | - |
| 1777303336 | 6.67° C | 30% | 1005.2 hPa | 0 mm | - | - | - |
| 1777303276 | 7.78° C | 29% | 1005.3 hPa | 0 mm | - | - | - |
| 1777303216 | 7.78° C | 29% | 1005.3 hPa | 0 mm | - | - | - |
| 1777303156 | 6.67° C | 30% | 1005.3 hPa | 0 mm | - | - | - |
| 1777303096 | 6.67° C | 29% | 1005.1 hPa | 0 mm | - | - | - |
| 1777303036 | 6.67° C | 29% | 1005.5 hPa | 0 mm | - | - | - |
| 1777302976 | 6.67° C | 30% | 1005.3 hPa | 0 mm | - | - | - |
* Rain latest hour (hover to see other rain measurements)
** Current wind speed in m/s (hover to see current wind gust speed)